Regional Weather Roundup
Issued by NWS Cleveland, OH

Home | Current Version | Previous Version | Graphics & Text | Print | Product List | Glossary Off
Versions: 1 2 3 4 5 6 7 8 9 10 11 12 13 14 15 16 17 18 19 20 21 22 23 24 25 26 27 28 29 30 31 32 33 34 35 36 37 38 39 40 41 42 43 44 45 46 47 48 49 50

000
ASUS41 KCLE 041610
RWRCLE
OHIO REGIONAL WEATHER ROUNDUP
NATIONAL WEATHER SERVICE CLEVELAND, OH
1200 PM EDT WED MAY 04 2016

NOTE: "FAIR" INDICATES FEW OR NO CLOUDS BELOW 12,000 FEET WITH NO
SIGNIFICANT WEATHER AND/OR OBSTRUCTIONS TO VISIBILITY.

OHZ001>008-015>018-024>027-034-035-043-044-041700-
   NORTHWEST OHIO

CITY           SKY/WX    TMP DP  RH WIND       PRES   REMARKS
DEFIANCE       RAIN      52  48  86 S13       29.58S FOG
FINDLAY        CLOUDY    58  43  57 SW17      29.60F
TOLEDO EXPRESS CLOUDY    57  45  64 S9        29.58F
TOLEDO EXEC    CLOUDY    58  48  69 S12       29.60F
LIMA           LGT RAIN  52  47  83 SW16      29.62R
$$

OHZ009>014-019>023-028>033-038-089-041700-
   NORTHEAST OHIO

CITY           SKY/WX    TMP DP  RH WIND       PRES   REMARKS
CLE-HOPKINS    PTSUNNY   63  40  42 S12       29.66F
CLE-LAKEFRONT  MOSUNNY   63  40  42 VRB6      29.64F
CUY CO. ARPT   PTSUNNY   64  45  48 S9        29.66S
LORAIN-ELYRIA  PTSUNNY   62  42  47 S13       29.63F
ASHTABULA      CLOUDY    60  36  40 SE7       29.68S
AKRON-CANTON   CLOUDY    59  40  49 SW6       29.67S
WOOSTER        MOSUNNY   61  44  53 S8        29.66F
MANSFIELD      CLOUDY    59  45  59 S10       29.64F
YOUNGSTOWN     CLOUDY    60  37  42 SE7       29.67F
$$

OHZ042-051>053-060>062-070>072-077>081-041700-
  SOUTHWEST OHIO

CITY           SKY/WX    TMP DP  RH WIND       PRES   REMARKS
CINC-COVINGTON LGT RAIN  52  47  83 SW6       29.70F
CINC-LUNKEN    LGT RAIN  54  48  80 SW13      29.71S
HAMILTON       LGT RAIN  53  48  83 SW7       29.70S
DAYTON         LGT RAIN  51  47  86 SW13      29.67R
WRIGHT-PAT AFB LGT RAIN  54  50  86 SW14      29.67R
DAYTON GENERAL LGT RAIN  52  45  77 SW9       29.67S
WILMINGTON     CLOUDY    57  44  62 W21G28    29.67S
$$

OHZ036-037-039>041-045>050-054>059-063>069-073>076-082>088-041700-
  CENTRAL AND SOUTHEAST OHIO

CITY           SKY/WX    TMP DP  RH WIND       PRES   REMARKS
COLUMBUS       CLOUDY    61  44  53 SW14G21   29.65F
OSU AIRPORT    CLOUDY    61  43  51 SW15G22   29.64F
BOLTON FIELD   CLOUDY    61  46  59 SW15      29.66F
RICKENBACK AFB PTSUNNY   62  46  56 S13G18    29.65F
NEWARK         MOSUNNY   63  44  50 SW13      29.65F
MARION         CLOUDY    57  46  66 SW12G20   29.64S
LANCASTER      MOSUNNY   62  47  57 SW13      29.67F
ZANESVILLE     MOSUNNY   62  42  47 VRB5      29.67F
NEW PHILLY     CLOUDY    60  40  47 VRB6      29.68F
$$



USA.gov is the U.S. government's official web portal to all federal, state and local government web resources and services.